Location: *
(55.6049°S, 142.1985°W)
Time: 00:59:42
(UTC+00:00)

Cosmos 1190 Rocket - Pass Details

Date: 12 May 2021
Orbit: 756 x 780 km, 74.1° (Epoch: 18 June)

Event Time Altitude Azimuth Distance (km) Brightness Sun altitude
Rises 14:38:51 0° 342° (NNW) 3,267 7.1 -21.5°
Reaches altitude 10° 14:41:14 10° 344° (NNW) 2,348 6.4 -21.2°
Maximum altitude 14:46:33 72° 66° (ENE) 838 4.3 -20.4°
Drops below altitude 10° 14:51:57 10° 149° (SSE) 2,376 6.9 -19.7°
Sets 14:54:22 0° 151° (SSE) 3,309 7.6 -19.3°
